Regional Weather Roundup
Issued by NWS

Home | Current Version | Previous Version | Graphics & Text | Print | Product List | Glossary Off
Versions: 1 2 3 4 5 6 7 8 9 10 11 12 13 14 15 16 17 18 19 20 21 22 23 24 25 26 27 28 29 30 31 32 33 34 35 36 37 38 39 40 41 42 43 44 45 46 47 48 49 50

000
ASUS43 KDTX 282110
RWRMI
MICHIGAN HOURLY REGIONAL WEATHER ROUNDUP
NATIONAL WEATHER SERVICE DETROIT/PONTIAC MI
500 PM EDT THU AUG 28 2014

NOTE: "FAIR" INDICATES FEW OR NO CLOUDS BELOW 12,000 FEET WITH NO
SIGNIFICANT WEATHER AND/OR OBSTRUCTION TO VISIBILITY.

MIZ047>049-052>055-059>063-066>070-074>076-081>083-282200-
SOUTHEAST LOWER MICHIGAN

CITY           SKY/WX    TMP DP  RH WIND       PRES   REMARKS
ADRIAN         PTSUNNY   74  55  51 SE7       30.12F
ALMA           SUNNY     70  45  40 CALM      30.14F
ANN ARBOR      SUNNY     74  52  46 VRB3      30.11F
BAD AXE        PTSUNNY   70  51  52 CALM      30.14F
CARO           MOSUNNY   71  53  53 CALM      30.13F
DETROIT CITY   SUNNY     75  50  41 CALM      30.12F
DETROIT        MOSUNNY   75  49  39 N5        30.12F
FLINT          SUNNY     74  50  42 S3        30.13F
GROSSE ILE     SUNNY     72  54  53 E7        30.11F
HILLSDALE      MOSUNNY   74  54  49 CALM      30.12S
HOWELL         SUNNY     71  47  43 N3        30.13F

CITY           SKY/WX    TMP DP  RH WIND       PRES   REMARKS
JACKSON        SUNNY     74  55  51 N7        30.12F
LAMBERTVILLE   MOSUNNY   73  57  56 SE6       30.12F
LANSING        SUNNY     71  47  42 CALM      30.13F
LAPEER         MOCLDY    69  50  50 CALM      30.14F
MASON          SUNNY     70  49  47 CALM      30.13F
MONROE         MOSUNNY   73  57  56 SE7       30.10F
MT. CLEMENS    MOSUNNY   70  52  51 E7        30.12S
PONTIAC        PTSUNNY   71  49  45 VRB3      30.12F
PORT HOPE        N/A     65  53  65 NE7       30.14F
PORT HURON     SUNNY     68  54  60 N6        30.14S
TRI CITIES     SUNNY     71  50  47 NW3       30.14F
TROY           SUNNY     74  47  38 NE6       30.14F
SAGINAW HB     SUNNY     70  52  52 CALM      30.13F
$$
MIZ043>046-050>051-056>058-064>065-071>073-077>080-282200-
SOUTHWEST LOWER MICHIGAN

CITY           SKY/WX    TMP DP  RH WIND       PRES   REMARKS
BATTLE CREEK   MOSUNNY   75  56  51 S5        30.12F
BENTON HARBOR  MOSUNNY   80  59  48 E8        30.08S
BIG RAPIDS     MOSUNNY   71  54  54 NW5       30.12F
COLDWATER      MOSUNNY   78  57  48 E5        30.10F
FREMONT        FAIR      74  46  36 S5        30.11F
HOLLAND        SUNNY     76  55  48 E7        30.11F
GRAND RAPIDS   PTSUNNY   72  53  51 E5        30.12F
IONIA          FAIR      71  47  42 E5        30.12F
KALAMAZOO      MOSUNNY   76  55  48 VRB3      30.10F
LUDINGTON      MOSUNNY   70  57  63 NW9       30.12F
MARSHALL       SUNNY     74  55  51 CALM      30.11S
MOUNT PLEASANT SUNNY     72  45  37 CALM      30.13F
MUSKEGON       PTSUNNY   74  50  42 VRB5      30.12S
SOUTH HAVEN    SUNNY     76  58  52 E5        30.09S
$$
MIZ016>042-282200-
NORTHERN LOWER MICHIGAN

CITY           SKY/WX    TMP DP  RH WIND       PRES   REMARKS
ALPENA         PTSUNNY   67  48  50 E9        30.14F
BEAVER ISLAND  MOSUNNY   66  50  56 SW6       30.15F
BELLAIRE       CLOUDY    69  51  51 W3        30.13F
CADILLAC       PTSUNNY   70  52  52 NE5       30.13F
CHARLEVOIX     MOSUNNY   66  50  55 NW6       30.18S
FRANKFORT      MOSUNNY   70  50  50 N7        30.13F
GAYLORD        PTSUNNY   67  45  45 W7        30.15F
GRAYLING       CLOUDY    70  47  43 N7        30.15F
HARBOR SPRINGS SUNNY     68  51  52 SW6       30.14F
HOUGHTON LAKE  MOSUNNY   70  48  45 W6        30.14F
MANISTEE       MOSUNNY   70  52  52 NW10      30.12F
OSCODA         SUNNY     66  52  60 E7        30.15S
PELLSTON       CLOUDY    68  47  46 N3        30.14F
ROGERS CITY    SUNNY     63  50  63 N6        30.16S
TRAVERSE CITY  PTSUNNY   69  47  45 NE7       30.12F
$$
MIZ007>008-015-282200-
EASTERN UPPER MICHIGAN

CITY           SKY/WX    TMP DP  RH WIND       PRES   REMARKS
KINROSS        SUNNY     66  45  45 N6        30.13F
MACKINAC ISLAN MOSUNNY   64  49  57 SW3       30.13F
NEWBERRY       SUNNY     66  46  47 S5        30.12F
S. S. MARIE    SUNNY     69  43  38 W8        30.12F
MUNISING         N/A     65  52  62 NE9       30.11F
$$
MIZ004>006-011>014-085-282200-
CENTRAL UPPER MICHIGAN

CITY           SKY/WX    TMP DP  RH WIND       PRES   REMARKS
MANISTIQUE     CLOUDY    64  53  69 S7        30.14S
ESCANABA       CLOUDY    64  52  63 SE12      30.12F
MENOMINEE      CLOUDY    66  55  68 S12       30.10F
SAWYER-GWINN   MOSUNNY   68  52  56 S9        30.10F
$$
MIZ001>003-009>011-084-282200-
WESTERN UPPER MICHIGAN

CITY           SKY/WX    TMP DP  RH WIND       PRES   REMARKS
IRON MOUNTAIN  PTSUNNY   71  51  49 S5        30.08F
HOUGHTON       SUNNY     67  49  52 E9        30.09S
COPPER HARBOR    N/A     68  45  43 VRB7      30.09F
$$

ABBREVIATIONS USED IN REMARKS
   TC - TEMPERATURE IN CELSIUS
  WCI - WIND CHILL INDEX
   HX - HEAT INDEX
  VSB - VISIBILITY



USA.gov is the U.S. government's official web portal to all federal, state and local government web resources and services.